TimeEDT,TemperatureF,Dew PointF,Humidity,Sea Level PressureIn,VisibilityMPH,Wind Direction,Wind SpeedMPH,Gust SpeedMPH,PrecipitationIn,Events,Conditions,WindDirDegrees,DateUTC
12:53 AM,46.0,43.0,89,30.17,10.0,Calm,Calm,-,N/A,,Clear,0,2013-09-27 04:53:00
1:53 AM,46.0,44.1,93,30.17,10.0,South,4.6,-,N/A,,Clear,170,2013-09-27 05:53:00
2:53 AM,46.0,44.1,93,30.17,8.0,Calm,Calm,-,N/A,,Clear,0,2013-09-27 06:53:00
3:53 AM,45.0,44.1,97,30.17,2.5,South,3.5,-,N/A,,Clear,170,2013-09-27 07:53:00
4:01 AM,46.4,44.6,93,30.18,2.0,South,3.5,-,N/A,,Clear,170,2013-09-27 08:01:00
4:03 AM,46.4,44.6,93,30.18,3.0,South,3.5,-,N/A,,Clear,170,2013-09-27 08:03:00
4:53 AM,46.0,45.0,96,30.19,1.2,Calm,Calm,-,N/A,,Scattered Clouds,0,2013-09-27 08:53:00
4:55 AM,46.4,44.6,93,30.19,0.8,Calm,Calm,-,N/A,,Mist,0,2013-09-27 08:55:00
5:53 AM,48.9,48.0,97,30.21,0.2,Calm,Calm,-,N/A,Fog,Fog,0,2013-09-27 09:53:00
6:53 AM,48.9,48.0,97,30.23,0.2,SSW,3.5,-,N/A,Fog,Fog,210,2013-09-27 10:53:00
7:53 AM,50.0,48.9,96,30.25,0.2,SW,3.5,-,N/A,Fog,Fog,230,2013-09-27 11:53:00
8:25 AM,50.0,48.2,94,30.24,1.5,SSW,4.6,-,N/A,,Overcast,200,2013-09-27 12:25:00
8:29 AM,50.0,48.2,94,30.24,2.5,SSW,3.5,-,N/A,,Overcast,210,2013-09-27 12:29:00
8:37 AM,50.0,50.0,100,30.24,4.0,Calm,Calm,-,N/A,,Overcast,0,2013-09-27 12:37:00
8:53 AM,52.0,51.1,97,30.25,6.0,SSW,4.6,-,N/A,,Overcast,210,2013-09-27 12:53:00
9:12 AM,51.8,51.8,100,30.25,10.0,SW,4.6,-,N/A,,Scattered Clouds,220,2013-09-27 13:12:00
9:53 AM,57.0,52.0,83,30.27,10.0,Calm,Calm,-,N/A,,Clear,0,2013-09-27 13:53:00
10:53 AM,60.1,53.1,78,30.27,10.0,SW,3.5,-,N/A,,Partly Cloudy,230,2013-09-27 14:53:00
11:53 AM,64.0,53.1,67,30.27,10.0,Variable,3.5,-,N/A,,Clear,0,2013-09-27 15:53:00
12:29 PM,66.2,51.8,60,30.26,10.0,NW,4.6,-,N/A,,Mostly Cloudy,320,2013-09-27 16:29:00
12:53 PM,64.9,51.1,61,30.26,10.0,Calm,Calm,-,N/A,,Scattered Clouds,0,2013-09-27 16:53:00
1:53 PM,70.0,52.0,53,30.24,10.0,Variable,5.8,-,N/A,,Partly Cloudy,0,2013-09-27 17:53:00
2:53 PM,66.9,54.0,63,30.24,10.0,ESE,4.6,-,N/A,,Clear,110,2013-09-27 18:53:00
3:53 PM,69.1,53.1,57,30.23,10.0,Variable,4.6,-,N/A,,Partly Cloudy,0,2013-09-27 19:53:00
4:53 PM,68.0,52.0,56,30.23,10.0,Variable,3.5,-,N/A,,Scattered Clouds,0,2013-09-27 20:53:00
5:53 PM,66.9,52.0,59,30.23,10.0,Variable,4.6,-,N/A,,Partly Cloudy,0,2013-09-27 21:53:00
6:53 PM,61.0,54.0,78,30.25,10.0,Calm,Calm,-,N/A,,Clear,0,2013-09-27 22:53:00
7:53 PM,57.0,53.1,87,30.25,10.0,Calm,Calm,-,N/A,,Clear,0,2013-09-27 23:53:00
8:53 PM,54.0,51.1,90,30.27,10.0,Calm,Calm,-,N/A,,Clear,0,2013-09-28 00:53:00
9:53 PM,48.9,46.9,93,30.28,8.0,SE,3.5,-,N/A,,Clear,140,2013-09-28 01:53:00
10:53 PM,48.0,46.0,93,30.28,7.0,Calm,Calm,-,N/A,,Clear,0,2013-09-28 02:53:00
11:53 PM,46.0,45.0,96,30.28,5.0,Calm,Calm,-,N/A,,Clear,0,2013-09-28 03:53:00